Tracking 30995 objects as of 6-Jul-2025
HD Live streaming from Space Station
objects crossing your sky now

OPS 8068

Track OPS 8068 now!
10-day predictions
OPS 8068 is classified as:


NORAD ID: 1580
Int'l Code: 1965-072A
Perigee: 636.5 km
Apogee: 965.9 km
Inclination: 98.4 °
Period: 100.7 minutes
Semi major axis: 7172 km
RCS: 0.631 m2 (medium)
Launch date: September 10, 1965
Source: United States (US)
Launch site: AIR FORCE WESTERN TEST RANGE (AFWTR)
Your satellite tracking list
Your tracking list is empty




NASA's NSSDC Master Catalog

Two Line Element Set (TLE):
1 01580U 65072A   25186.41828430  .00000129  00000-0  52800-4 0  9997
2 01580  98.3780 349.9829 0229635 350.7993   8.9015 14.29313574 83472
Source of the keplerian elements: AFSPC